Year,Month,Day,Hour,Minute,Value (Times are PST for temperature in C)
2009,08,19,00,00,16.40
2009,08,19,00,01,16.30
2009,08,19,00,02,16.30
2009,08,19,00,03,16.20
2009,08,19,00,04,16.10
2009,08,19,00,05,16.10
2009,08,19,00,06,15.90
2009,08,19,00,07,15.90
2009,08,19,00,08,15.90
2009,08,19,00,09,15.80
2009,08,19,00,10,15.80
2009,08,19,00,11,15.80
2009,08,19,00,12,15.80
2009,08,19,00,13,15.70
2009,08,19,00,14,15.70
2009,08,19,00,15,15.60
2009,08,19,00,16,15.50
2009,08,19,00,17,15.50
2009,08,19,00,18,15.50
2009,08,19,00,19,15.40
2009,08,19,00,20,15.40
2009,08,19,00,21,15.40
2009,08,19,00,22,15.30
2009,08,19,00,23,15.30
2009,08,19,00,24,15.30
2009,08,19,00,25,15.30
2009,08,19,00,26,15.30
2009,08,19,00,27,15.30
2009,08,19,00,28,15.30
2009,08,19,00,29,15.30
2009,08,19,00,30,15.30
2009,08,19,00,31,15.30
2009,08,19,00,32,15.20
2009,08,19,00,33,15.20
2009,08,19,00,34,15.20
2009,08,19,00,35,15.20
2009,08,19,00,36,15.20
2009,08,19,00,37,15.20
2009,08,19,00,38,15.20
2009,08,19,00,39,15.20
2009,08,19,00,40,15.20
2009,08,19,00,41,15.20
2009,08,19,00,42,15.20
2009,08,19,00,43,15.20
2009,08,19,00,44,15.20
2009,08,19,00,45,15.20
2009,08,19,00,46,15.20
2009,08,19,00,47,15.20
2009,08,19,00,48,15.10
2009,08,19,00,49,15.10
2009,08,19,00,50,15.10
2009,08,19,00,51,15.10
2009,08,19,00,52,15.10
2009,08,19,00,53,15.10
2009,08,19,00,54,15.10
2009,08,19,00,55,15.10
2009,08,19,00,56,15.10
2009,08,19,00,57,15.10
2009,08,19,00,58,15.10
2009,08,19,00,59,15.10
2009,08,19,01,00,15.10
2009,08,19,01,01,15.10
2009,08,19,01,02,15.00
2009,08,19,01,03,15.00
2009,08,19,01,04,15.00
2009,08,19,01,05,15.00
2009,08,19,01,06,15.00
2009,08,19,01,07,15.00
2009,08,19,01,08,15.00
2009,08,19,01,09,14.90
2009,08,19,01,10,14.90
2009,08,19,01,11,14.90
2009,08,19,01,12,14.80
2009,08,19,01,13,14.80
2009,08,19,01,14,14.80
2009,08,19,01,15,14.80
2009,08,19,01,16,14.80
2009,08,19,01,17,14.80
2009,08,19,01,18,14.80
2009,08,19,01,19,14.80
2009,08,19,01,20,14.80
2009,08,19,01,21,14.80
2009,08,19,01,22,14.80
2009,08,19,01,23,14.80
2009,08,19,01,24,14.80
2009,08,19,01,25,14.80
2009,08,19,01,26,14.80
2009,08,19,01,27,14.80
2009,08,19,01,28,14.90
2009,08,19,01,29,14.90
2009,08,19,01,30,14.90
2009,08,19,01,31,14.90
2009,08,19,01,32,15.00
2009,08,19,01,33,15.00
2009,08,19,01,34,15.00
2009,08,19,01,35,15.00
2009,08,19,01,36,15.00
2009,08,19,01,37,15.10
2009,08,19,01,38,15.10
2009,08,19,01,39,15.10
2009,08,19,01,40,15.10
2009,08,19,01,41,15.10
2009,08,19,01,42,15.20
2009,08,19,01,43,15.20
2009,08,19,01,44,15.20
2009,08,19,01,45,15.20
2009,08,19,01,46,15.20
2009,08,19,01,47,15.30
2009,08,19,01,48,15.30
2009,08,19,01,49,15.30
2009,08,19,01,50,15.30
2009,08,19,01,51,15.30
2009,08,19,01,52,15.30
2009,08,19,01,53,15.30
2009,08,19,01,54,15.30
2009,08,19,01,55,15.40
2009,08,19,01,56,15.40
2009,08,19,01,57,15.40
2009,08,19,01,58,15.50
2009,08,19,01,59,15.50
2009,08,19,02,00,15.50
2009,08,19,02,01,15.50
2009,08,19,02,02,15.50
2009,08,19,02,03,15.60
2009,08,19,02,04,15.60
2009,08,19,02,05,15.60
2009,08,19,02,06,15.70
2009,08,19,02,07,15.70
2009,08,19,02,08,15.80
2009,08,19,02,09,15.80
2009,08,19,02,10,15.80
2009,08,19,02,11,15.80
2009,08,19,02,12,15.80
2009,08,19,02,13,15.80
2009,08,19,02,14,15.80
2009,08,19,02,15,15.80
2009,08,19,02,16,15.90
2009,08,19,02,17,15.90
2009,08,19,02,18,15.90
2009,08,19,02,19,15.90
2009,08,19,02,20,15.90
2009,08,19,02,21,16.00
2009,08,19,02,22,16.10
2009,08,19,02,23,16.10
2009,08,19,02,24,16.10
2009,08,19,02,25,16.10
2009,08,19,02,26,16.10
2009,08,19,02,27,16.10
2009,08,19,02,28,16.10
2009,08,19,02,29,16.20
2009,08,19,02,30,16.20
2009,08,19,02,31,16.20
2009,08,19,02,32,16.20
2009,08,19,02,33,16.20
2009,08,19,02,34,16.30
2009,08,19,02,35,16.30
2009,08,19,02,36,16.30
2009,08,19,02,37,16.30
2009,08,19,02,38,16.40
2009,08,19,02,39,16.40
2009,08,19,02,40,16.40
2009,08,19,02,41,16.40
2009,08,19,02,42,16.40
2009,08,19,02,43,16.40
2009,08,19,02,44,16.40
2009,08,19,02,45,16.40
2009,08,19,02,46,16.40
2009,08,19,02,47,16.40
2009,08,19,02,48,16.40
2009,08,19,02,49,16.50
2009,08,19,02,50,16.60
2009,08,19,02,51,16.60
2009,08,19,02,52,16.60
2009,08,19,02,53,16.60
2009,08,19,02,54,16.70
2009,08,19,02,55,16.80
2009,08,19,02,56,16.90
2009,08,19,02,57,16.90
2009,08,19,02,58,17.00
2009,08,19,02,59,17.00
2009,08,19,03,00,17.00
2009,08,19,03,01,17.00
2009,08,19,03,02,17.10
2009,08,19,03,03,17.10
2009,08,19,03,04,17.10
2009,08,19,03,05,17.10
2009,08,19,03,06,17.10
2009,08,19,03,07,17.10
2009,08,19,03,08,17.10
2009,08,19,03,09,17.10
2009,08,19,03,10,17.10
2009,08,19,03,11,17.10
2009,08,19,03,12,17.20
2009,08,19,03,13,17.20
2009,08,19,03,14,17.20
2009,08,19,03,15,17.20
2009,08,19,03,16,17.20
2009,08,19,03,17,17.20
2009,08,19,03,18,17.20
2009,08,19,03,19,17.20
2009,08,19,03,20,17.20
2009,08,19,03,21,17.20
2009,08,19,03,22,17.20
2009,08,19,03,23,17.30
2009,08,19,03,24,17.30
2009,08,19,03,25,17.30
2009,08,19,03,26,17.30
2009,08,19,03,27,17.30
2009,08,19,03,28,17.30
2009,08,19,03,29,17.30
2009,08,19,03,30,17.40
2009,08,19,03,31,17.40
2009,08,19,03,32,17.50
2009,08,19,03,33,17.50
2009,08,19,03,34,17.50
2009,08,19,03,35,17.50
2009,08,19,03,36,17.50
2009,08,19,03,37,17.50
2009,08,19,03,38,17.50
2009,08,19,03,39,17.50
2009,08,19,03,40,17.50
2009,08,19,03,41,17.50
2009,08,19,03,42,17.40
2009,08,19,03,43,17.40
2009,08,19,03,44,17.40
2009,08,19,03,45,17.40
2009,08,19,03,46,17.30
2009,08,19,03,47,17.30
2009,08,19,03,48,17.30
2009,08,19,03,49,17.30
2009,08,19,03,50,17.30
2009,08,19,03,51,17.30
2009,08,19,03,52,17.30
2009,08,19,03,53,17.30
2009,08,19,03,54,17.30
2009,08,19,03,55,17.20
2009,08,19,03,56,17.20
2009,08,19,03,57,17.20
2009,08,19,03,58,17.20
2009,08,19,03,59,17.20
2009,08,19,04,00,17.20
2009,08,19,04,01,17.20
2009,08,19,04,02,17.20
2009,08,19,04,03,17.20
2009,08,19,04,04,17.10
2009,08,19,04,05,17.10
2009,08,19,04,06,17.10
2009,08,19,04,07,17.00
2009,08,19,04,08,17.00
2009,08,19,04,09,17.00
2009,08,19,04,10,16.90
2009,08,19,04,11,16.90
2009,08,19,04,12,16.90
2009,08,19,04,13,16.80
2009,08,19,04,14,16.80
2009,08,19,04,15,16.80
2009,08,19,04,16,16.80
2009,08,19,04,17,16.70
2009,08,19,04,18,16.70
2009,08,19,04,19,16.70
2009,08,19,04,20,16.70
2009,08,19,04,21,16.70
2009,08,19,04,22,16.70
2009,08,19,04,23,16.70
2009,08,19,04,24,16.70
2009,08,19,04,25,16.70
2009,08,19,04,26,16.70
2009,08,19,04,27,16.70
2009,08,19,04,28,16.70
2009,08,19,04,29,16.70
2009,08,19,04,30,16.70
2009,08,19,04,31,16.70
2009,08,19,04,32,16.70
2009,08,19,04,33,16.70
2009,08,19,04,34,16.70
2009,08,19,04,35,16.70
2009,08,19,04,36,16.70
2009,08,19,04,37,16.70
2009,08,19,04,38,16.70
2009,08,19,04,39,16.70
2009,08,19,04,40,16.60
2009,08,19,04,41,16.60
2009,08,19,04,42,16.60
2009,08,19,04,43,16.60
2009,08,19,04,44,16.50
2009,08,19,04,45,16.40
2009,08,19,04,46,16.40
2009,08,19,04,47,16.40
2009,08,19,04,48,16.40
2009,08,19,04,49,16.30
2009,08,19,04,50,16.30
2009,08,19,04,51,16.20
2009,08,19,04,52,16.10
2009,08,19,04,53,16.00
2009,08,19,04,54,15.90
2009,08,19,04,55,15.80
2009,08,19,04,56,15.80
2009,08,19,04,57,15.80
2009,08,19,04,58,15.70
2009,08,19,04,59,15.70
2009,08,19,05,00,15.70
2009,08,19,05,01,15.70
2009,08,19,05,02,15.70
2009,08,19,05,03,15.70
2009,08,19,05,04,15.70
2009,08,19,05,05,15.70
2009,08,19,05,06,15.60
2009,08,19,05,07,15.50
2009,08,19,05,08,15.50
2009,08,19,05,09,15.40
2009,08,19,05,10,15.30
2009,08,19,05,11,15.30
2009,08,19,05,12,15.20
2009,08,19,05,13,15.10
2009,08,19,05,14,15.00
2009,08,19,05,15,15.00
2009,08,19,05,16,14.80
2009,08,19,05,17,14.80
2009,08,19,05,18,14.70
2009,08,19,05,19,14.60
2009,08,19,05,20,14.50
2009,08,19,05,21,14.40
2009,08,19,05,22,14.30
2009,08,19,05,23,14.20
2009,08,19,05,24,14.20
2009,08,19,05,25,14.20
2009,08,19,05,26,14.10
2009,08,19,05,27,14.10
2009,08,19,05,28,14.00
2009,08,19,05,29,14.00
2009,08,19,05,30,13.90
2009,08,19,05,31,13.90
2009,08,19,05,32,13.90
2009,08,19,05,33,13.80
2009,08,19,05,34,13.80
2009,08,19,05,35,13.80
2009,08,19,05,36,13.80
2009,08,19,05,37,13.80
2009,08,19,05,38,13.70
2009,08,19,05,39,13.70
2009,08,19,05,40,13.70
2009,08,19,05,41,13.70
2009,08,19,05,42,13.70
2009,08,19,05,43,13.70
2009,08,19,05,44,13.70
2009,08,19,05,45,13.70
2009,08,19,05,46,13.70
2009,08,19,05,47,13.70
2009,08,19,05,48,13.70
2009,08,19,05,49,13.70
2009,08,19,05,50,13.70
2009,08,19,05,51,13.70
2009,08,19,05,52,13.70
2009,08,19,05,53,13.70
2009,08,19,05,54,13.70
2009,08,19,05,55,13.70
2009,08,19,05,56,13.70
2009,08,19,05,57,13.70
2009,08,19,05,58,13.80
2009,08,19,05,59,13.80
2009,08,19,06,00,13.80
2009,08,19,06,01,13.90
2009,08,19,06,02,13.90
2009,08,19,06,03,13.90
2009,08,19,06,04,13.90
2009,08,19,06,05,13.90
2009,08,19,06,06,13.90
2009,08,19,06,07,13.90
2009,08,19,06,08,14.00
2009,08,19,06,09,14.00
2009,08,19,06,10,14.00
2009,08,19,06,11,14.00
2009,08,19,06,12,14.00
2009,08,19,06,13,14.00
2009,08,19,06,14,14.00
2009,08,19,06,15,14.00
2009,08,19,06,16,14.00
2009,08,19,06,17,14.10
2009,08,19,06,18,14.10
2009,08,19,06,19,14.10
2009,08,19,06,20,14.10
2009,08,19,06,21,14.10
2009,08,19,06,22,14.10
2009,08,19,06,23,14.10
2009,08,19,06,24,14.10
2009,08,19,06,25,14.10
2009,08,19,06,26,14.10
2009,08,19,06,27,14.10
2009,08,19,06,28,14.10
2009,08,19,06,29,14.10
2009,08,19,06,30,14.10
2009,08,19,06,31,14.10
2009,08,19,06,32,14.10
2009,08,19,06,33,14.10
2009,08,19,06,34,14.20
2009,08,19,06,35,14.20
2009,08,19,06,36,14.20
2009,08,19,06,37,14.20
2009,08,19,06,38,14.20
2009,08,19,06,39,14.20
2009,08,19,06,40,14.20
2009,08,19,06,41,14.20
2009,08,19,06,42,14.20
2009,08,19,06,43,14.20
2009,08,19,06,44,14.20
2009,08,19,06,45,14.20
2009,08,19,06,46,14.20
2009,08,19,06,47,14.20
2009,08,19,06,48,14.20
2009,08,19,06,49,14.20
2009,08,19,06,50,14.20
2009,08,19,06,51,14.30
2009,08,19,06,52,14.30
2009,08,19,06,53,14.30
2009,08,19,06,54,14.30
2009,08,19,06,55,14.30
2009,08,19,06,56,14.30
2009,08,19,06,57,14.30
2009,08,19,06,58,14.30
2009,08,19,06,59,14.40
2009,08,19,07,00,14.40
2009,08,19,07,01,14.40
2009,08,19,07,02,14.40
2009,08,19,07,03,14.40
2009,08,19,07,04,14.50
2009,08,19,07,05,14.50
2009,08,19,07,06,14.50
2009,08,19,07,07,14.50
2009,08,19,07,08,14.60
2009,08,19,07,09,14.60
2009,08,19,07,10,14.70
2009,08,19,07,11,14.70
2009,08,19,07,12,14.80
2009,08,19,07,13,14.80
2009,08,19,07,14,14.80
2009,08,19,07,15,14.90
2009,08,19,07,16,14.90
2009,08,19,07,17,15.00
2009,08,19,07,18,15.00
2009,08,19,07,19,15.10
2009,08,19,07,20,15.10
2009,08,19,07,21,15.20
2009,08,19,07,22,15.30
2009,08,19,07,23,15.30
2009,08,19,07,24,15.30
2009,08,19,07,25,15.40
2009,08,19,07,26,15.50
2009,08,19,07,27,15.50
2009,08,19,07,28,15.50
2009,08,19,07,29,15.60
2009,08,19,07,30,15.60
2009,08,19,07,31,15.70
2009,08,19,07,32,15.80
2009,08,19,07,33,15.80
2009,08,19,07,34,15.80
2009,08,19,07,35,15.80
2009,08,19,07,36,15.90
2009,08,19,07,37,15.90
2009,08,19,07,38,16.00
2009,08,19,07,39,16.10
2009,08,19,07,40,16.10
2009,08,19,07,41,16.20
2009,08,19,07,42,16.20
2009,08,19,07,43,16.20
2009,08,19,07,44,16.30
2009,08,19,07,45,16.40
2009,08,19,07,46,16.40
2009,08,19,07,47,16.50
2009,08,19,07,48,16.60
2009,08,19,07,49,16.60
2009,08,19,07,50,16.70
2009,08,19,07,51,16.70
2009,08,19,07,52,16.80
2009,08,19,07,53,16.80
2009,08,19,07,54,16.90
2009,08,19,07,55,16.90
2009,08,19,07,56,17.00
2009,08,19,07,57,17.00
2009,08,19,07,58,17.10
2009,08,19,07,59,17.20
2009,08,19,08,00,17.20
2009,08,19,08,01,17.30
2009,08,19,08,02,17.30
2009,08,19,08,03,17.40
2009,08,19,08,04,17.50
2009,08,19,08,05,17.60
2009,08,19,08,06,17.70
2009,08,19,08,07,17.70
2009,08,19,08,08,17.80
2009,08,19,08,09,17.80
2009,08,19,08,10,17.90
2009,08,19,08,11,18.00
2009,08,19,08,12,18.20
2009,08,19,08,13,18.30
2009,08,19,08,14,18.40
2009,08,19,08,15,18.50
2009,08,19,08,16,18.60
2009,08,19,08,17,18.60
2009,08,19,08,18,18.70
2009,08,19,08,19,18.80
2009,08,19,08,20,18.90
2009,08,19,08,21,18.90
2009,08,19,08,22,18.90
2009,08,19,08,23,19.00
2009,08,19,08,24,19.10
2009,08,19,08,25,19.10
2009,08,19,08,26,19.10
2009,08,19,08,27,19.10
2009,08,19,08,28,19.10
2009,08,19,08,29,19.10
2009,08,19,08,30,19.20
2009,08,19,08,31,19.30
2009,08,19,08,32,19.30
2009,08,19,08,33,19.40
2009,08,19,08,34,19.40
2009,08,19,08,35,19.40
2009,08,19,08,36,19.50
2009,08,19,08,37,19.50
2009,08,19,08,38,19.50
2009,08,19,08,39,19.50
2009,08,19,08,40,19.50
2009,08,19,08,41,19.50
2009,08,19,08,42,19.50
2009,08,19,08,43,19.50
2009,08,19,08,44,19.50
2009,08,19,08,45,19.60
2009,08,19,08,46,19.60
2009,08,19,08,47,19.60
2009,08,19,08,48,19.60
2009,08,19,08,49,19.60
2009,08,19,08,50,19.70
2009,08,19,08,51,19.70
2009,08,19,08,52,19.70
2009,08,19,08,53,19.70
2009,08,19,08,54,19.70
2009,08,19,08,55,19.70
2009,08,19,08,56,19.70
2009,08,19,08,57,19.70
2009,08,19,08,58,19.70
2009,08,19,08,59,19.80
2009,08,19,09,00,19.80
2009,08,19,09,01,19.80
2009,08,19,09,02,19.80
2009,08,19,09,03,19.80
2009,08,19,09,04,19.80
2009,08,19,09,05,19.80
2009,08,19,09,06,19.80
2009,08,19,09,07,19.80
2009,08,19,09,08,19.80
2009,08,19,09,09,19.80
2009,08,19,09,10,19.90
2009,08,19,09,11,19.90
2009,08,19,09,12,19.90
2009,08,19,09,13,19.90
2009,08,19,09,14,19.90
2009,08,19,09,15,19.90
2009,08,19,09,16,19.90
2009,08,19,09,17,20.00
2009,08,19,09,18,20.10
2009,08,19,09,19,20.10
2009,08,19,09,20,20.20
2009,08,19,09,21,20.20
2009,08,19,09,22,20.20
2009,08,19,09,23,20.20
2009,08,19,09,24,20.30
2009,08,19,09,25,20.30
2009,08,19,09,26,20.40
2009,08,19,09,27,20.40
2009,08,19,09,28,20.40
2009,08,19,09,29,20.50
2009,08,19,09,30,20.50
2009,08,19,09,31,20.50
2009,08,19,09,32,20.60
2009,08,19,09,33,20.70
2009,08,19,09,34,20.70
2009,08,19,09,35,20.80
2009,08,19,09,36,20.80
2009,08,19,09,37,20.90
2009,08,19,09,38,21.00
2009,08,19,09,39,21.00
2009,08,19,09,40,21.00
2009,08,19,09,41,21.10
2009,08,19,09,42,21.10
2009,08,19,09,43,21.10
2009,08,19,09,44,21.20
2009,08,19,09,45,21.20
2009,08,19,09,46,21.20
2009,08,19,09,47,21.20
2009,08,19,09,48,21.20
2009,08,19,09,49,21.10
2009,08,19,09,50,21.10
2009,08,19,09,51,21.20
2009,08,19,09,52,21.20
2009,08,19,09,53,21.20
2009,08,19,09,54,21.30
2009,08,19,09,55,21.30
2009,08,19,09,56,21.30
2009,08,19,09,57,21.30
2009,08,19,09,58,21.30
2009,08,19,09,59,21.30
2009,08,19,10,00,21.30
2009,08,19,10,01,21.40
2009,08,19,10,02,21.50
2009,08,19,10,03,21.60
2009,08,19,10,04,21.60
2009,08,19,10,05,21.60
2009,08,19,10,06,21.70
2009,08,19,10,07,21.70
2009,08,19,10,08,21.70
2009,08,19,10,09,21.80
2009,08,19,10,10,21.70
2009,08,19,10,11,21.80
2009,08,19,10,12,21.70
2009,08,19,10,13,21.80
2009,08,19,10,14,21.80
2009,08,19,10,15,21.70
2009,08,19,10,16,21.80
2009,08,19,10,17,21.80
2009,08,19,10,18,21.90
2009,08,19,10,19,21.90
2009,08,19,10,20,21.90
2009,08,19,10,21,21.90
2009,08,19,10,22,22.00
2009,08,19,10,23,22.00
2009,08,19,10,24,22.00
2009,08,19,10,25,22.00
2009,08,19,10,26,22.00
2009,08,19,10,27,22.00
2009,08,19,10,28,22.10
2009,08,19,10,29,22.10
2009,08,19,10,30,22.10
2009,08,19,10,31,22.10
2009,08,19,10,32,22.10
2009,08,19,10,33,22.00
2009,08,19,10,34,22.00
2009,08,19,10,35,22.00
2009,08,19,10,36,22.00
2009,08,19,10,37,22.00
2009,08,19,10,38,22.00
2009,08,19,10,39,22.10
2009,08,19,10,40,22.10
2009,08,19,10,41,22.20
2009,08,19,10,42,22.20
2009,08,19,10,43,22.30
2009,08,19,10,44,22.30
2009,08,19,10,45,22.40
2009,08,19,10,46,22.40
2009,08,19,10,47,22.40
2009,08,19,10,48,22.40
2009,08,19,10,49,22.50
2009,08,19,10,50,22.50
2009,08,19,10,51,22.50
2009,08,19,10,52,22.40
2009,08,19,10,53,22.40
2009,08,19,10,54,22.40
2009,08,19,10,55,22.40
2009,08,19,10,56,22.30
2009,08,19,10,57,22.30
2009,08,19,10,58,22.40
2009,08,19,10,59,22.40
2009,08,19,11,00,22.50
2009,08,19,11,01,22.50
2009,08,19,11,02,22.50
2009,08,19,11,03,22.40
2009,08,19,11,04,22.40
2009,08,19,11,05,22.40
2009,08,19,11,06,22.40
2009,08,19,11,07,22.40
2009,08,19,11,08,22.40
2009,08,19,11,09,22.50
2009,08,19,11,10,22.50
2009,08,19,11,11,22.40
2009,08,19,11,12,22.40
2009,08,19,11,13,22.50
2009,08,19,11,14,22.60
2009,08,19,11,15,22.60
2009,08,19,11,16,22.70
2009,08,19,11,17,22.80
2009,08,19,11,18,22.80
2009,08,19,11,19,22.80
2009,08,19,11,20,22.80
2009,08,19,11,21,22.70
2009,08,19,11,22,22.70
2009,08,19,11,23,22.60
2009,08,19,11,24,22.70
2009,08,19,11,25,22.80
2009,08,19,11,26,22.80
2009,08,19,11,27,22.90
2009,08,19,11,28,22.90
2009,08,19,11,29,22.90
2009,08,19,11,30,22.90
2009,08,19,11,31,22.90
2009,08,19,11,32,22.90
2009,08,19,11,33,22.80
2009,08,19,11,34,22.80
2009,08,19,11,35,22.80
2009,08,19,11,36,22.80
2009,08,19,11,37,22.70
2009,08,19,11,38,22.70
2009,08,19,11,39,22.70
2009,08,19,11,40,22.80
2009,08,19,11,41,22.90
2009,08,19,11,42,22.90
2009,08,19,11,43,23.00
2009,08,19,11,44,23.00
2009,08,19,11,45,23.10
2009,08,19,11,46,23.10
2009,08,19,11,47,23.20
2009,08,19,11,48,23.20
2009,08,19,11,49,23.20
2009,08,19,11,50,23.10
2009,08,19,11,51,23.10
2009,08,19,11,52,23.20
2009,08,19,11,53,23.20
2009,08,19,11,54,23.20
2009,08,19,11,55,23.20
2009,08,19,11,56,23.30
2009,08,19,11,57,23.30
2009,08,19,11,58,23.30
2009,08,19,11,59,23.30
2009,08,19,12,00,23.30
2009,08,19,12,01,23.30
2009,08,19,12,02,23.30
2009,08,19,12,03,23.30
2009,08,19,12,04,23.40
2009,08,19,12,05,23.50
2009,08,19,12,06,23.60
2009,08,19,12,07,23.50
2009,08,19,12,08,23.50
2009,08,19,12,09,23.60
2009,08,19,12,10,23.60
2009,08,19,12,11,23.60
2009,08,19,12,12,23.60
2009,08,19,12,13,23.40
2009,08,19,12,14,23.40
2009,08,19,12,15,23.50
2009,08,19,12,16,23.60
2009,08,19,12,17,23.60
2009,08,19,12,18,23.60
2009,08,19,12,19,23.60
2009,08,19,12,20,23.70
2009,08,19,12,21,23.70
2009,08,19,12,22,23.70
2009,08,19,12,23,23.80
2009,08,19,12,24,23.80
2009,08,19,12,25,23.80
2009,08,19,12,26,23.80
2009,08,19,12,27,23.80
2009,08,19,12,28,23.80
2009,08,19,12,29,23.90
2009,08,19,12,30,23.90
2009,08,19,12,31,23.90
2009,08,19,12,32,24.00
2009,08,19,12,33,24.10
2009,08,19,12,34,24.10
2009,08,19,12,35,24.10
2009,08,19,12,36,24.10
2009,08,19,12,37,24.10
2009,08,19,12,38,24.10
2009,08,19,12,39,24.20
2009,08,19,12,40,24.20
2009,08,19,12,41,24.20
2009,08,19,12,42,24.20
2009,08,19,12,43,24.20
2009,08,19,12,44,24.20
2009,08,19,12,45,24.20
2009,08,19,12,46,24.10
2009,08,19,12,47,24.20
2009,08,19,12,48,24.20
2009,08,19,12,49,24.20
2009,08,19,12,50,24.20
2009,08,19,12,51,24.30
2009,08,19,12,52,24.20
2009,08,19,12,53,24.20
2009,08,19,12,54,24.10
2009,08,19,12,55,24.10
2009,08,19,12,56,24.10
2009,08,19,12,57,24.10
2009,08,19,12,58,24.10
2009,08,19,12,59,24.10
2009,08,19,13,00,24.10
2009,08,19,13,01,24.10
2009,08,19,13,02,24.20
2009,08,19,13,03,24.30
2009,08,19,13,04,24.30
2009,08,19,13,05,24.30
2009,08,19,13,06,24.30
2009,08,19,13,07,24.30
2009,08,19,13,08,24.30
2009,08,19,13,09,24.30
2009,08,19,13,10,24.30
2009,08,19,13,11,24.40
2009,08,19,13,12,24.40
2009,08,19,13,13,24.40
2009,08,19,13,14,24.50
2009,08,19,13,15,24.50
2009,08,19,13,16,24.50
2009,08,19,13,17,24.60
2009,08,19,13,18,24.60
2009,08,19,13,19,24.60
2009,08,19,13,20,24.60
2009,08,19,13,21,24.70
2009,08,19,13,22,24.80
2009,08,19,13,23,24.80
2009,08,19,13,24,24.90
2009,08,19,13,25,24.90
2009,08,19,13,26,24.90
2009,08,19,13,27,24.90
2009,08,19,13,28,24.80
2009,08,19,13,29,24.80
2009,08,19,13,30,24.80
2009,08,19,13,31,24.70
2009,08,19,13,32,24.60
2009,08,19,13,33,24.50
2009,08,19,13,34,24.60
2009,08,19,13,35,24.70
2009,08,19,13,36,24.80
2009,08,19,13,37,24.80
2009,08,19,13,38,24.80
2009,08,19,13,39,24.80
2009,08,19,13,40,24.90
2009,08,19,13,41,24.90
2009,08,19,13,42,24.90
2009,08,19,13,43,25.00
2009,08,19,13,44,25.00
2009,08,19,13,45,25.10
2009,08,19,13,46,25.10
2009,08,19,13,47,25.10
2009,08,19,13,48,25.10
2009,08,19,13,49,25.10
2009,08,19,13,50,25.10
2009,08,19,13,51,25.00
2009,08,19,13,52,25.00
2009,08,19,13,53,25.00
2009,08,19,13,54,25.00
2009,08,19,13,55,25.10
2009,08,19,13,56,25.10
2009,08,19,13,57,25.10
2009,08,19,13,58,25.10
2009,08,19,13,59,25.10
2009,08,19,14,00,25.20
2009,08,19,14,01,25.30
2009,08,19,14,02,25.40
2009,08,19,14,03,25.40
2009,08,19,14,04,25.50
2009,08,19,14,05,25.50
2009,08,19,14,06,25.60
2009,08,19,14,07,25.60
2009,08,19,14,08,25.70
2009,08,19,14,09,25.80
2009,08,19,14,10,25.80
2009,08,19,14,11,25.80
2009,08,19,14,12,25.90
2009,08,19,14,13,25.90
2009,08,19,14,14,26.00
2009,08,19,14,15,26.00
2009,08,19,14,16,26.10
2009,08,19,14,17,26.20
2009,08,19,14,18,26.10
2009,08,19,14,19,26.10
2009,08,19,14,20,26.10
2009,08,19,14,21,26.10
2009,08,19,14,22,26.10
2009,08,19,14,23,26.00
2009,08,19,14,24,25.90
2009,08,19,14,25,25.90
2009,08,19,14,26,25.90
2009,08,19,14,27,26.00
2009,08,19,14,28,26.10
2009,08,19,14,29,26.20
2009,08,19,14,30,26.30
2009,08,19,14,31,26.30
2009,08,19,14,32,26.30
2009,08,19,14,33,26.20
2009,08,19,14,34,26.10
2009,08,19,14,35,26.00
2009,08,19,14,36,26.00
2009,08,19,14,37,26.00
2009,08,19,14,38,26.00
2009,08,19,14,39,26.00
2009,08,19,14,40,26.00
2009,08,19,14,41,26.10
2009,08,19,14,42,26.10
2009,08,19,14,43,26.10
2009,08,19,14,44,26.10
2009,08,19,14,45,26.10
2009,08,19,14,46,26.20
2009,08,19,14,47,26.20
2009,08,19,14,48,26.20
2009,08,19,14,49,26.20
2009,08,19,14,50,26.20
2009,08,19,14,51,26.20
2009,08,19,14,52,26.30
2009,08,19,14,53,26.40
2009,08,19,14,54,26.60
2009,08,19,14,55,26.60
2009,08,19,14,56,26.70
2009,08,19,14,57,26.80
2009,08,19,14,58,26.80
2009,08,19,14,59,26.80
2009,08,19,15,00,26.70
2009,08,19,15,01,26.70
2009,08,19,15,02,26.60
2009,08,19,15,03,26.60
2009,08,19,15,04,26.60
2009,08,19,15,05,26.60
2009,08,19,15,06,26.60
2009,08,19,15,07,26.60
2009,08,19,15,08,26.60
2009,08,19,15,09,26.60
2009,08,19,15,10,26.60
2009,08,19,15,11,26.60
2009,08,19,15,12,26.60
2009,08,19,15,13,26.60
2009,08,19,15,14,26.60
2009,08,19,15,15,26.60
2009,08,19,15,16,26.70
2009,08,19,15,17,26.70
2009,08,19,15,18,26.70
2009,08,19,15,19,26.70
2009,08,19,15,20,26.80
2009,08,19,15,21,26.80
2009,08,19,15,22,26.80
2009,08,19,15,23,27.00
2009,08,19,15,24,27.00
2009,08,19,15,25,26.90
2009,08,19,15,26,26.90
2009,08,19,15,27,26.80
2009,08,19,15,28,26.80
2009,08,19,15,29,26.80
2009,08,19,15,30,26.70
2009,08,19,15,31,26.80
2009,08,19,15,32,26.80
2009,08,19,15,33,26.80
2009,08,19,15,34,26.80
2009,08,19,15,35,26.80
2009,08,19,15,36,26.80
2009,08,19,15,37,26.80
2009,08,19,15,38,26.80
2009,08,19,15,39,26.70
2009,08,19,15,40,26.80
2009,08,19,15,41,26.80
2009,08,19,15,42,26.70
2009,08,19,15,43,26.60
2009,08,19,15,44,26.60
2009,08,19,15,45,26.60
2009,08,19,15,46,26.60
2009,08,19,15,47,26.60
2009,08,19,15,48,26.60
2009,08,19,15,49,26.70
2009,08,19,15,50,26.60
2009,08,19,15,51,26.60
2009,08,19,15,52,26.60
2009,08,19,15,53,26.60
2009,08,19,15,54,26.60
2009,08,19,15,55,26.60
2009,08,19,15,56,26.60
2009,08,19,15,57,26.60
2009,08,19,15,58,26.60
2009,08,19,15,59,26.60
2009,08,19,16,00,26.10
2009,08,19,16,01,25.70
2009,08,19,16,02,25.20
2009,08,19,16,03,24.80
2009,08,19,16,04,24.50
2009,08,19,16,05,24.20
2009,08,19,16,06,23.80
2009,08,19,16,07,23.50
2009,08,19,16,08,23.20
2009,08,19,16,09,23.00
2009,08,19,16,10,22.80
2009,08,19,16,11,22.70
2009,08,19,16,12,22.50
2009,08,19,16,13,22.40
2009,08,19,16,14,22.30
2009,08,19,16,15,22.30
2009,08,19,16,16,22.20
2009,08,19,16,17,22.20
2009,08,19,16,18,22.20
2009,08,19,16,19,22.20
2009,08,19,16,20,22.20
2009,08,19,16,21,22.30
2009,08,19,16,22,22.30
2009,08,19,16,23,22.40
2009,08,19,16,24,22.40
2009,08,19,16,25,22.40
2009,08,19,16,26,22.40
2009,08,19,16,27,22.40
2009,08,19,16,28,22.40
2009,08,19,16,29,22.50
2009,08,19,16,30,22.50
2009,08,19,16,31,22.50
2009,08,19,16,32,22.50
2009,08,19,16,33,22.60
2009,08,19,16,34,22.70
2009,08,19,16,35,22.80
2009,08,19,16,36,22.80
2009,08,19,16,37,22.80
2009,08,19,16,38,22.80
2009,08,19,16,39,22.80
2009,08,19,16,40,22.80
2009,08,19,16,41,22.80
2009,08,19,16,42,22.80
2009,08,19,16,43,22.90
2009,08,19,16,44,22.90
2009,08,19,16,45,22.90
2009,08,19,16,46,23.00
2009,08,19,16,47,23.10
2009,08,19,16,48,23.20
2009,08,19,16,49,23.30
2009,08,19,16,50,23.40
2009,08,19,16,51,23.40
2009,08,19,16,52,23.50
2009,08,19,16,53,23.60
2009,08,19,16,54,23.60
2009,08,19,16,55,23.70
2009,08,19,16,56,23.70
2009,08,19,16,57,23.70
2009,08,19,16,58,23.70
2009,08,19,16,59,23.70
2009,08,19,17,00,23.60
2009,08,19,17,01,23.60
2009,08,19,17,02,23.60
2009,08,19,17,03,23.50
2009,08,19,17,04,23.40
2009,08,19,17,05,23.40
2009,08,19,17,06,23.50
2009,08,19,17,07,23.60
2009,08,19,17,08,23.50
2009,08,19,17,09,23.50
2009,08,19,17,10,23.60
2009,08,19,17,11,23.60
2009,08,19,17,12,23.60
2009,08,19,17,13,23.70
2009,08,19,17,14,23.70
2009,08,19,17,15,23.80
2009,08,19,17,16,23.90
2009,08,19,17,17,24.00
2009,08,19,17,18,24.10
2009,08,19,17,19,24.20